Weather History for Lee's Summit, MO

Change the Weather History Date:

Saturday, September 21, 2013

  Actual Average (KMKC) Record (KMKC)
Temperature  
Mean Temperature 62 °F -  
Max Temperature 73 °F 75 °F 90 °F (2005)
Min Temperature 50 °F 55 °F 42 °F (1999)
Degree Days  
Heating Degree Days 4    
Growing Degree Days 12 (Base 50)    
Moisture  
Dew Point 47 °F    
Average Humidity 61    
Maximum Humidity 89    
Minimum Humidity 36    
Precipitation  
Precipitation 0.00 in - - ()
Sea Level Pressure  
Sea Level Pressure 30.00 in    
Wind  
Wind Speed 2 mph (East)    
Max Wind Speed 7 mph    
Max Gust Speed -    
Visibility 10 miles    
Events      
Averages and records for this station are not official NWS values.
T = Trace of Precipitation, MM = Missing Value Source: NWS Daily Summary

Daily Weather History Graph

Daily Weather History Graph

Search for Another Location

Airport:

Trip Planner

Search our weather history database for the weather conditions in past years. The results will help you decide how hot, cold, wet, or windy it might be!

Date:

Astronomy

Sep. 21, 2013 Rise Set
Actual Time 7:04 AM CDT 7:15 PM CDT
Civil Twilight 6:37 AM CDT 7:42 PM CDT
Nautical Twilight 6:06 AM CDT 8:13 PM CDT
Astronomical Twilight 5:34 AM CDT 8:45 PM CDT
Moon 8:28 PM CDT (9/21) 9:22 AM CDT (9/21)
Length of Visible Light 13h 04m
Length of Day
12h 11m
Waning Gibbous, 94% of the Moon is Illuminated
Sep 21
Waning Gibbous
Sep 26
Last Quarter
Oct 4
New
Oct 11
First Quarter
Oct 18
Full

Hourly Weather History & Observations

Time (CDT) Temp. Dew Point Humidity Pressure Visibility Wind Dir Wind Speed Gust Speed Precip Events Conditions
12:53 AM 55.9 °F 48.9 °F 77% 30.00 in 10.0 mi Calm Calm - N/A   Clear
1:53 AM 55.0 °F 48.9 °F 80% 30.00 in 10.0 mi Calm Calm - N/A   Clear
2:53 AM 54.0 °F 48.0 °F 80% 30.00 in 10.0 mi Calm Calm - N/A   Clear
3:53 AM 53.1 °F 48.9 °F 86% 29.99 in 10.0 mi Calm Calm - N/A   Clear
4:53 AM 50.0 °F 46.9 °F 89% 30.01 in 10.0 mi Calm Calm - N/A   Clear
5:53 AM 51.1 °F 46.0 °F 83% 30.02 in 10.0 mi North 6.9 mph - N/A   Clear
6:53 AM 50.0 °F 46.0 °F 86% 30.04 in 10.0 mi Calm Calm - N/A   Clear
7:53 AM 52.0 °F 48.0 °F 86% 30.04 in 10.0 mi Calm Calm - N/A   Clear
8:53 AM 57.9 °F 48.9 °F 72% 30.04 in 10.0 mi ENE 4.6 mph - N/A   Clear
9:53 AM 62.1 °F 45.0 °F 53% 30.05 in 10.0 mi ENE 4.6 mph - N/A   Clear
10:53 AM 64.9 °F 43.0 °F 45% 30.06 in 10.0 mi East 4.6 mph - N/A   Clear
11:53 AM 66.9 °F 43.0 °F 42% 30.05 in 10.0 mi Variable 3.5 mph - N/A   Clear
12:53 PM 68.0 °F 44.1 °F 42% 30.04 in 10.0 mi WSW 3.5 mph - N/A   Clear
1:53 PM 70.0 °F 42.1 °F 36% 30.01 in 10.0 mi Variable 3.5 mph - N/A   Clear
2:53 PM 72.0 °F 44.1 °F 37% 29.99 in 10.0 mi NNE 4.6 mph - N/A   Clear
3:53 PM 72.0 °F 46.0 °F 40% 29.97 in 10.0 mi Calm Calm - N/A   Clear
4:53 PM 73.0 °F 45.0 °F 37% 29.96 in 10.0 mi WNW 3.5 mph - N/A   Clear
5:53 PM 72.0 °F 46.0 °F 40% 29.95 in 10.0 mi ENE 4.6 mph - N/A   Clear
6:53 PM 68.0 °F 48.0 °F 49% 29.94 in 10.0 mi East 3.5 mph - N/A   Clear
7:53 PM 64.9 °F 50.0 °F 58% 29.94 in 10.0 mi SE 4.6 mph - N/A   Clear
8:53 PM 64.0 °F 48.9 °F 58% 29.95 in 10.0 mi SSE 4.6 mph - N/A   Clear
9:53 PM 63.0 °F 48.0 °F 58% 29.95 in 10.0 mi SSE 4.6 mph - N/A   Clear
10:53 PM 61.0 °F 48.0 °F 62% 29.95 in 10.0 mi SE 5.8 mph - N/A   Clear
11:53 PM 61.0 °F 46.9 °F 60% 29.95 in 10.0 mi SSE 3.5 mph - N/A   Clear